FENGYUN 1C DEB, 30660

Orbit data source: Space-Track

FENGYUN 1C DEB, 30660 is space debris in SSO originally from a launch on Mon, 10 May 1999 UTC launched from the Taiyaun Space Center, China (TSC). Fengyun 1C debris stems from the Chinese weather satellite Fengyun-1C, which was intentionally destroyed by a Chinese anti-satellite missile in 2007. This event dramatically increased the amount of space debris, with thousands of trackable fragments posing hazards to satellites and human spaceflight. The Fengyun 1C debris cloud has become a focal point in discussions about space sustainability and the need for international regulations to prevent the creation of new debris.

Loading next visibility...
Identifier
30660, 1999-025APS
Orbit
SSO
Country
Flag of CNCN / PRC
Related business
Manufacturer
Unknown
Mission
Spacecraft
Bus & Motor
Unknown
Mass
Unknown
Launch date (UTC)
1999-05-10 (27 years ago)
Launch vehicle
Unknown
Launch site
Taiyaun Space Center, China (TSC)
Object type
Payload
Rocket body
Debris
Shape & HBR
Unknown shape, 0.1 m
Radar Cross Section
Small (<0.1 m²)

Expand to show TLE details & history
Last TLE update: 1 day ago

TLE from 1 day ago
0 FENGYUN 1C DEB
1 30660U 99025APS 26123.24160779  .00008354  00000-0  74324-3 0  9993
2 30660  98.1375 228.6067 0131210 230.8179 158.7992 14.89918136 28909
Epoch: 2026-05-03T05:47Z
TLE epoch observation values (Epoch: 2026-05-03T05:47:54.913Z)
Latitude
29.86968°
Longitude
-84.20526°
Altitude
687.522 km
Speed
7.469 km/s
True Right ascension
14h 55m 41s
True Declination
29° 43' 12"
Sunlit
Object was in full shadow at epoch
Visualization orbit readout
Latitude
Unknown
Longitude
Unknown
Altitude
Unknown
Speed
Unknown
Apparent Right ascension
Unknown
Apparent Declination
Unknown
Sunlit
N/A
Visualization observer readout
Local Sidereal Time
19:52:17
Azimuth
Unknown
Elevation
Unknown
Doppler factor
Unknown
Orbital elements
Apogee altitude
686.726 km
Perigee altitude
503.731 km
Semi-major axis
6,973.366 km
Eccentricity
0.01312
Inclination
98.1375°
RAAN
228.6067°
Arg. of periapsis
230.8179°
True anomaly
159.33474°
Mean anomaly
158.7992°
Eccentric anomaly
159.06778°
Mean motion
3.72717 °/min
Orbital period
96.59 mins
BSTAR
0.00074324
Loading maneuver chart data...
Computing Atmospheric mass density...

Documentation

Showing up to 5 results
|